• Join FlightAware (Why Join?)
  • Login
  • US Flag 
10:21PM EST


 

Airport Tracker/Info


-or-


 

Live Flight TrackerFlight Track Log ✈ EJA749P ✈ 25-Jul-2014 ✈ KSTP - KOAK

Flight Track Log - Related Links

Times and Time Zones

All times are in EDT time to prevent confusion due to time zone crossing. See the EJA749P flight status page for this flight to view local times or setup timezone preferences in your user account.

Time Position Orientation Groundspeed Altitude Reporting Facility
EDT Latitude Longitude Course Direction KTS MPH feet Rate Location/Type
07:22PM 44.9214 -92.9756 54° Northeast 221 254 2,500  Level Minneapolis Center
07:23PM 44.9853 -92.9517 15° North 218 251 4,200 1,839 Climbing Minneapolis Center
07:24PM 45.0269 -93.0233 309° West 241 277 6,300 2,710 Climbing Minneapolis Center
07:25PM 45.0667 -93.1100 303° West 262 302 9,800 2,758 Climbing Minneapolis Center
07:26PM 45.0603 -93.2206 265° West 289 333 12,000 2,081 Climbing Minneapolis Center
07:27PM 45.0020 -93.9731 281° West  Level FlightAware Approximate
07:27PM 45.0544 -93.3481 266° West 331 381 14,100  Level Minneapolis Center
07:28PM 45.0453 -93.5119 266° West 351 404 17,000 2,544 Climbing Minneapolis Center
07:29PM 45.0367 -93.6536 265° West 362 417 19,400 2,323 Climbing Minneapolis Center
07:30PM 45.0292 -93.7953 266° West 362 417 21,800 1,742 Climbing Minneapolis Center
07:31PM 45.0211 -93.9381 265° West 364 419 23,000 1,597 Climbing Minneapolis Center
07:32PM 45.0328 -94.0886 276° West 384 442 25,100 2,323 Climbing Minneapolis Center
07:33PM 45.0589 -94.2558 283° West 368 423 27,800 1,403 Climbing Minneapolis Center
07:35PM 45.0808 -94.4003 282° West 372 428 28,000 97 Climbing Minneapolis Center
07:36PM 45.1011 -94.5542 281° West 391 450 28,000  Level Minneapolis Center
07:37PM 45.1161 -94.7256 277° West 401 461 28,000  Level Minneapolis Center
07:38PM 45.1319 -94.8850 278° West 406 467 28,000  Level Minneapolis Center
07:39PM 45.1469 -95.0450 278° West 409 471 28,000  Level Minneapolis Center
07:40PM 45.1639 -95.2064 279° West 411 473 28,000  Level Minneapolis Center
07:41PM 45.1819 -95.4006 278° West 414 476 28,000  Level Minneapolis Center
07:42PM 45.1958 -95.5597 277° West 413 475 28,000  Level Minneapolis Center
07:43PM 45.2106 -95.7217 277° West 413 475 28,000  Level Minneapolis Center
07:44PM 45.2256 -95.8817 278° West 413 475 28,000  Level Minneapolis Center
07:45PM 45.2389 -96.0439 277° West 413 475 28,000  Level Minneapolis Center
07:46PM 45.2556 -96.2367 277° West 414 476 28,000  Level Minneapolis Center
07:47PM 45.2694 -96.3961 277° West 411 473 28,000  Level Minneapolis Center
07:48PM 45.2831 -96.5564 277° West 410 472 28,000  Level Minneapolis Center
07:49PM 45.2958 -96.7169 277° West 411 473 28,000 387 Level Minneapolis Center
07:50PM 45.3089 -96.8781 277° West 414 476 28,800 919 Climbing Minneapolis Center
07:51PM 45.3214 -97.0356 276° West 410 472 29,900 1,104 Climbing Minneapolis Center
07:52PM 45.3369 -97.2236 277° West 404 465 31,100 1,008 Climbing Minneapolis Center
07:53PM 45.3481 -97.3789 276° West 403 464 32,000 435 Climbing Minneapolis Center
07:54PM 45.3600 -97.5356 276° West 402 463 32,000  Level Minneapolis Center
07:55PM 45.3722 -97.6947 276° West 403 464 32,000  Level Minneapolis Center
07:56PM 45.3836 -97.8517 276° West 403 464 32,000  Level Minneapolis Center
07:57PM 45.3972 -98.0414 276° West 404 465 32,000  Level Minneapolis Center
07:58PM 45.4058 -98.1797 275° West 404 465 32,000  Level Minneapolis Center
07:59PM 45.4156 -98.3681 274° West 403 464 32,000  Level Minneapolis Center
08:00PM 45.3758 -98.5183 249° West 402 463 32,000  Level Minneapolis Center
08:01PM 45.3331 -98.6675 248° West 406 467 32,000  Level Minneapolis Center
08:02PM 45.2903 -98.8161 248° West 406 467 32,000  Level Minneapolis Center
08:04PM 45.2478 -98.9658 248° West 407 468 32,000  Level Minneapolis Center
08:05PM 45.1953 -99.1433 247° West 407 468 32,000  Level Minneapolis Center
08:06PM 45.1553 -99.2803 248° West 407 468 32,000  Level Minneapolis Center
08:07PM 45.1047 -99.4517 247° West 407 468 32,000  Level Minneapolis Center
08:08PM 45.0639 -99.5875 247° West 408 470 32,000  Level Minneapolis Center
08:09PM 45.0197 -99.7347 247° West 407 468 32,000  Level Minneapolis Center
08:10PM 44.9736 -99.8842 246° West 407 468 32,000  Level Minneapolis Center
08:11PM 44.9269 -100.0375 247° West 413 475 32,000  Level Minneapolis Center
08:12PM 44.8839 -100.1842 248° West 407 468 32,000  Level Minneapolis Center
08:13PM 44.8319 -100.3567 247° West 403 464 32,000  Level Minneapolis Center
08:14PM 44.7875 -100.5019 247° West 403 464 32,000  Level Minneapolis Center
08:15PM 44.7431 -100.6461 247° West 403 464 32,000  Level Minneapolis Center
08:16PM 44.6978 -100.7897 246° West 403 464 32,000  Level Minneapolis Center
08:17PM 44.6525 -100.9344 246° West 403 464 32,000  Level Minneapolis Center
08:18PM 44.6072 -101.0789 246° West 403 464 32,000  Level Minneapolis Center
08:19PM 44.5628 -101.2208 246° West 403 464 32,000  Level Minneapolis Center
08:20PM 44.5078 -101.3925 246° West 402 463 32,000  Level Minneapolis Center
08:21PM 44.4628 -101.5336 246° West 402 463 32,000  Level Minneapolis Center
08:22PM 44.4181 -101.6764 246° West 402 463 32,000  Level Denver Center
08:23PM 44.3722 -101.8186 246° West 402 463 32,000  Level Denver Center
08:24PM 44.3264 -101.9622 246° West 403 464 32,000  Level Denver Center
08:25PM 44.2808 -102.1033 246° West 403 464 32,000 435 Level Denver Center
08:26PM 44.2339 -102.2436 245° Southwest 402 463 32,900 1,016 Climbing Denver Center
08:27PM 44.1811 -102.4092 246° West 393 452 34,100 1,056 Climbing Denver Center
08:28PM 44.1356 -102.5433 245° Southwest 389 448 35,100 912 Climbing Denver Center
08:29PM 44.0931 -102.6728 245° Southwest 380 437 36,000 435 Climbing Denver Center
08:30PM 44.0419 -102.8194 244° Southwest 379 436 36,000  Level Denver Center
08:31PM 43.9989 -102.9497 245° Southwest 381 438 36,000  Level Denver Center
08:32PM 43.9528 -103.1036 247° West 386 444 36,000  Level Denver Center
08:33PM 43.9194 -103.2400 251° West 386 444 36,000  Level Denver Center
08:35PM 43.8794 -103.3989 251° West 388 447 36,000  Level Denver Center
08:36PM 43.8431 -103.5314 249° West 388 447 36,000  Level Denver Center
08:37PM 43.8031 -103.6892 251° West 389 448 36,000  Level Denver Center
08:38PM 43.7692 -103.8247 251° West 390 449 36,000  Level Denver Center
08:39PM 43.7267 -103.9792 249° West 389 448 36,000  Level Denver Center
08:40PM 43.6911 -104.1125 250° West 388 447 36,000  Level Denver Center
08:41PM 43.6567 -104.2444 250° West 387 445 36,000  Level Denver Center
08:42PM 43.6147 -104.3994 250° West 387 445 36,000  Level Denver Center
08:43PM 43.5794 -104.5319 250° West 387 445 36,000  Level Denver Center
08:44PM 43.5375 -104.6858 249° West 386 444 36,000  Level Denver Center
08:45PM 43.5014 -104.8183 249° West 386 444 36,000  Level Denver Center
08:46PM 43.4761 -104.9792 258° West 387 445 36,000  Level Denver Center
08:47PM 43.4475 -105.1106 253° West 383 441 36,000  Level Denver Center
08:48PM 43.4103 -105.2661 252° West 383 441 36,000  Level Denver Center
08:49PM 43.3906 -105.4025 259° West 383 441 36,000  Level Denver Center
08:50PM 43.3653 -105.5647 258° West 385 443 36,000  Level Denver Center
08:51PM 43.3442 -105.7033 258° West 387 445 36,000  Level Denver Center
08:52PM 43.3181 -105.8672 258° West 392 451 36,000  Level Denver Center
08:53PM 43.2972 -106.0067 258° West 393 452 36,000  Level Denver Center
08:54PM 43.2717 -106.1692 258° West 392 451 36,000  Level Denver Center
08:55PM 43.2511 -106.3081 259° West 391 450 36,000  Level Denver Center
08:56PM 43.2231 -106.4711 257° West 393 452 36,000  Level Denver Center
08:57PM 43.2031 -106.6125 259° West 394 453 36,000  Level Denver Center
08:58PM 43.1750 -106.7750 257° West 395 455 36,000  Level Denver Center
08:59PM 43.1528 -106.9133 258° West 391 450 36,000  Level Denver Center
09:00PM 43.1267 -107.0761 258° West 392 451 36,000  Level Denver Center
09:01PM 43.1019 -107.2181 257° West 397 457 36,000  Level Denver Center
09:02PM 43.0753 -107.3761 257° West 396 456 36,000  Level Denver Center
09:03PM 43.0503 -107.5225 257° West 396 456 36,000  Level Denver Center
09:04PM 43.0264 -107.6667 257° West 395 455 36,000  Level Denver Center
09:06PM 42.9903 -107.8711 256° West 394 453 36,000  Level Salt Lake Center
09:07PM 42.9656 -108.0158 257° West 395 455 36,000  Level Salt Lake Center
09:08PM 42.9381 -108.1747 257° West 394 453 36,000  Level Salt Lake Center
09:09PM 42.9089 -108.3331 256° West 388 447 36,000  Level Salt Lake Center
09:10PM 42.8853 -108.4733 257° West 395 455 36,000  Level Salt Lake Center
09:11PM 42.8558 -108.6375 256° West 396 456 36,000  Level Salt Lake Center
09:12PM 42.8308 -108.7756 256° West 396 456 36,000  Level Salt Lake Center
09:13PM 42.8064 -108.9144 257° West 396 456 36,000  Level Salt Lake Center
09:14PM 42.7753 -109.0800 256° West 400 460 36,000  Level Salt Lake Center
09:15PM 42.7492 -109.2244 256° West 407 468 36,000  Level Salt Lake Center
09:16PM 42.7183 -109.3867 256° West 401 461 36,000  Level Salt Lake Center
09:17PM 42.6939 -109.5222 256° West 392 451 36,000  Level Salt Lake Center
09:18PM 42.6625 -109.6833 255° West 393 452 36,000  Level Salt Lake Center
09:19PM 42.6361 -109.8217 256° West 394 453 36,000  Level Salt Lake Center
09:20PM 42.6058 -109.9817 256° West 394 453 36,000  Level Salt Lake Center
09:21PM 42.5775 -110.1197 254° West 394 453 36,000  Level Salt Lake Center
09:22PM 42.5575 -110.2597 259° West 395 455 36,000  Level Salt Lake Center
09:23PM 42.5319 -110.4272 258° West 401 461 36,000  Level Salt Lake Center
09:24PM 42.5100 -110.5694 258° West 403 464 36,000  Level Salt Lake Center
09:25PM 42.4833 -110.7383 258° West 407 468 36,000  Level Salt Lake Center
09:27PM 42.4617 -110.8814 258° West 408 470 36,000  Level Salt Lake Center
09:28PM 42.4342 -111.0439 257° West 407 468 36,000  Level Salt Lake Center
09:29PM 42.4114 -111.1933 258° West 407 468 36,000  Level Salt Lake Center
09:30PM 42.3878 -111.3417 258° West 407 468 36,000  Level Salt Lake Center
09:31PM 42.3628 -111.4894 257° West 406 467 36,000  Level Salt Lake Center
09:32PM 42.3386 -111.6386 258° West 406 467 36,000  Level Salt Lake Center
09:33PM 42.3144 -111.7856 258° West 406 467 36,000  Level Salt Lake Center
09:34PM 42.2844 -111.9642 257° West 407 468 36,000  Level Salt Lake Center
09:35PM 42.2586 -112.1125 257° West 407 468 36,000  Level Salt Lake Center
09:36PM 42.2342 -112.2592 257° West 407 468 36,000  Level Salt Lake Center
09:37PM 42.2089 -112.4047 257° West 405 466 36,000  Level Salt Lake Center
09:38PM 42.1689 -112.5442 249° West 403 464 36,000  Level Salt Lake Center
09:39PM 42.1236 -112.6772 245° Southwest 396 456 36,000  Level Salt Lake Center
09:40PM 42.0778 -112.8139 246° West 399 459 36,000  Level Salt Lake Center
09:41PM 42.0217 -112.9778 245° Southwest 401 461 36,000  Level Salt Lake Center
09:42PM 41.9753 -113.1128 245° Southwest 401 461 36,000  Level Salt Lake Center
09:43PM 41.9278 -113.2508 245° Southwest 404 465 36,000  Level Salt Lake Center
09:44PM 41.8794 -113.3894 245° Southwest 408 470 36,000  Level Salt Lake Center
09:45PM 41.8308 -113.5286 245° Southwest 411 473 36,000 341 Level Salt Lake Center
09:46PM 41.7828 -113.6658 245° Southwest 411 473 36,700 871 Climbing Salt Lake Center
09:47PM 41.7361 -113.8014 245° Southwest 407 468 37,800 634 Climbing Salt Lake Center
09:48PM 41.6783 -113.9628 244° Southwest 406 467 38,000 98 Climbing Salt Lake Center
09:49PM 41.6297 -114.0964 244° Southwest 406 467 38,000  Level Salt Lake Center
09:50PM 41.5797 -114.2311 244° Southwest 406 467 38,000  Level Salt Lake Center
09:51PM 41.5319 -114.3661 245° Southwest 405 466 38,000  Level Salt Lake Center
09:52PM 41.4831 -114.5019 244° Southwest 405 466 38,000  Level Salt Lake Center
09:53PM 41.4342 -114.6356 244° Southwest 405 466 38,000  Level Salt Lake Center
09:54PM 41.3864 -114.7692 245° Southwest 405 466 38,000  Level Salt Lake Center
09:55PM 41.3267 -114.9300 244° Southwest 405 466 38,000  Level Salt Lake Center
09:56PM 41.2783 -115.0614 244° Southwest 402 463 38,000  Level Salt Lake Center
09:57PM 41.2300 -115.1931 244° Southwest 399 459 38,000  Level Salt Lake Center
09:58PM 41.1814 -115.3233 244° Southwest 399 459 38,000  Level Salt Lake Center
09:59PM 41.1322 -115.4561 244° Southwest 399 459 38,000  Level Salt Lake Center
10:00PM 41.0819 -115.5886 243° Southwest 399 459 38,000  Level Salt Lake Center
10:01PM 41.0319 -115.7208 243° Southwest 399 459 38,000  Level Salt Lake Center
10:02PM 40.9742 -115.8797 244° Southwest 399 459 38,000  Level Salt Lake Center
10:04PM 40.9211 -116.0114 242° Southwest 400 460 38,000  Level Salt Lake Center
10:05PM 40.8711 -116.1425 243° Southwest 403 464 38,000  Level Salt Lake Center
10:06PM 40.8167 -116.2817 243° Southwest 402 463 38,000  Level Salt Lake Center
10:07PM 40.7644 -116.4131 242° Southwest 403 464 38,000  Level Salt Lake Center
10:08PM 40.7131 -116.5469 243° Southwest 405 466 38,000  Level Salt Lake Center
10:09PM 40.6617 -116.6819 243° Southwest 411 473 38,000  Level Salt Lake Center
10:10PM 40.6100 -116.8142 243° Southwest 410 472 38,000  Level Salt Lake Center
10:11PM 40.5522 -116.9739 245° Southwest 408 470 38,000  Level Salt Lake Center
10:12PM 40.5169 -117.1158 252° West 408 470 38,000  Level Salt Lake Center
10:13PM 40.4808 -117.2594 252° West 410 472 38,000  Level Salt Lake Center
10:14PM 40.4439 -117.3986 251° West 409 471 38,000  Level Salt Lake Center
10:15PM 40.4075 -117.5381 251° West 409 471 38,000  Level Salt Lake Center
10:16PM 40.3706 -117.6769 251° West 409 471 38,000  Level Salt Lake Center
10:17PM 40.3331 -117.8172 251° West 408 470 38,000  Level Salt Lake Center
10:17PM 40.3106 -117.8994 250° West 408 470 38,000  Level Oakland Center
10:18PM 40.2711 -118.0367 249° West 407 468 38,000  Level Oakland Center
10:19PM 40.2342 -118.1733 251° West 406 467 38,000  Level Oakland Center
10:20PM 40.2108 -118.2550 250° West 406 467 38,000  Level Salt Lake Center
10:21PM 40.1722 -118.3925 250° West 404 465 38,000  Level Salt Lake Center
10:22PM 40.1339 -118.5281 250° West 404 465 38,000  Level Salt Lake Center
10:23PM 40.0950 -118.6636 249° West 404 465 38,000  Level Salt Lake Center
10:24PM 40.0483 -118.8267 250° West 404 465 38,000  Level Salt Lake Center
10:25PM 40.0097 -118.9606 249° West 403 464 38,000  Level Salt Lake Center
10:26PM 39.9697 -119.0972 249° West 403 464 38,000  Level Salt Lake Center
10:27PM 39.9300 -119.2350 249° West 404 465 38,000  Level Salt Lake Center
10:28PM 39.8894 -119.3728 249° West 407 468 38,000  Level Salt Lake Center
10:30PM 39.8244 -119.5931 249° West 408 470 38,000  Level Oakland Center
10:31PM 39.7831 -119.7314 249° West 411 473 38,000  Level Oakland Center
10:32PM 39.7425 -119.8694 249° West 412 474 38,000  Level Oakland Center
10:33PM 39.7022 -120.0042 249° West 410 472 38,000  Level Oakland Center
10:34PM 39.6614 -120.1408 249° West 407 468 38,000  Level Oakland Center
10:35PM 39.6197 -120.2772 248° West 408 470 38,000  Level Oakland Center
10:36PM 39.5781 -120.4128 248° West 408 470 38,000  Level Oakland Center
10:37PM 39.5364 -120.5469 248° West 407 468 38,000  Level Oakland Center
10:38PM 39.4950 -120.6817 248° West 407 468 38,000  Level Oakland Center
10:39PM 39.4447 -120.8464 248° West 408 470 38,000  Level Oakland Center
10:40PM 39.4011 -120.9853 248° West 415 478 38,000  Level Oakland Center
10:41PM 39.3583 -121.1225 248° West 416 479 38,000  Level Oakland Center
10:42PM 39.3147 -121.2608 248° West 418 481 38,000 -732 Level Oakland Center
10:43PM 39.2706 -121.4003 248° West 420 483 36,500 -1,707 Descending Oakland Center
10:44PM 39.2264 -121.5417 248° West 424 488 34,500 -1,967 Descending Oakland Center
10:45PM 39.1811 -121.6831 248° West 427 491 32,500 -1,967 Descending Oakland Center
10:46PM 39.1342 -121.8297 248° West 441 507 30,500 -2,146 Descending Oakland Center
10:47PM 39.0753 -122.0069 247° West 451 519 28,100 -2,146 Descending Oakland Center
10:48PM 38.9917 -122.1192 226° Southwest 437 503 26,100 -1,967 Descending Oakland Center
10:49PM 38.9031 -122.2231 222° Southwest 435 501 24,100 -1,918 Descending Oakland Center
10:50PM 38.8147 -122.3261 222° Southwest 431 496 22,200 -1,902 Descending Oakland Center
10:51PM 38.7269 -122.4264 222° Southwest 430 495 20,200 -1,951 Descending Oakland Center
10:52PM 38.6450 -122.5183 221° Southwest 425 489 18,200 -1,967 Descending Oakland Center
10:53PM 38.5400 -122.5394 189° South 390 449 16,200 -2,164 Descending Oakland Center
10:54PM 38.4147 -122.5436 181° South 377 434 13,800 -2,164 Descending Oakland Center
10:55PM 38.3153 -122.5467 181° South 364 419 11,800 -1,951 Descending Oakland Center
10:56PM 38.2311 -122.5506 182° South 316 364 9,800 -1,854 Descending Oakland Center
10:57PM 38.1481 -122.5531 181° South 302 348 8,000 -1,426 Descending Oakland Center
10:58PM 38.0656 -122.5564 182° South 300 345 6,900 -541 Descending Oakland Center
10:59PM 37.9872 -122.5489 176° South 285 328 6,900 -590 Level Oakland Center
11:00PM 37.9325 -122.4836 137° Southeast 280 322 5,700 -976 Descending Oakland Center
11:01PM 37.8914 -122.4067 124° Southeast 270 311 4,900 -404 Descending Oakland Center
11:02PM 37.8667 -122.3500 119° Southeast 258 297 5,000 59 Climbing Northern Cal TRACON
11:03PM 37.8167 -122.2667 127° Southeast 254 292 5,000 -300 Level Northern Cal TRACON
11:04PM 37.7833 -122.2000 122° Southeast 254 292 4,400 -800 Descending Northern Cal TRACON
11:05PM 37.7500 -122.1333 122° Southeast 225 259 3,400 -1,150 Descending Northern Cal TRACON
11:06PM 37.7167 -122.1167 158° South 193 222 2,100 -1,350 Descending Northern Cal TRACON
11:07PM 37.7167 -122.1667 270° West 136 157 700 -1,400 Descending Northern Cal TRACON
11:09PM 37.7167 -122.2167 270° West  Level FlightAware Approximate